Location: Arboucave
(43.6130°N, 0.4343°W)
Time: 00:33:52
(UTC+00:00)

Cosmos 2369 Rocket - Pass Details

Date: 17 November 2025
Orbit: 826 x 853 km, 71.0° (Epoch: 11 December)

Event Time Altitude Azimuth Distance (km) Brightness Sun altitude
Rises 18:00:40 0° 153° (SSE) 3,354 5.2 -15.5°
Reaches altitude 10° 18:04:08 10° 131° (SE) 2,431 4.2 -16.2°
Enters shadow 18:04:28 11° 128° (SE) 2,364 4.2 -16.2°
